Time,TemperatureF,DewpointF,PressureIn,WindDirection,WindDirectionDegrees,WindSpeedMPH,WindSpeedGustMPH,Humidity,HourlyPrecipIn,Conditions,Clouds,dailyrainin,SoftwareType,DateUTC
2013-08-18 00:55:00,82.7,76.7,30.04,ESE,103,3.0,10.0,82,0.00,,SCT250,0.00,VWS V14.00,2013-08-18 04:55:00,
2013-08-18 01:55:00,82.7,77.0,30.03,East,83,0.0,9.0,83,0.00,,SCT250,0.00,VWS V14.00,2013-08-18 05:55:00,
2013-08-18 02:55:00,82.4,76.0,30.01,SE,128,5.0,10.0,81,0.00,,SCT100,0.00,VWS V14.00,2013-08-18 06:55:00,
2013-08-18 03:55:00,82.4,76.0,29.99,ESE,113,1.0,10.0,81,0.00,,SCT100,0.00,VWS V14.00,2013-08-18 07:55:00,
2013-08-18 04:55:00,82.4,76.4,29.99,East,90,5.0,9.0,82,0.00,,SCT250,0.00,VWS V14.00,2013-08-18 08:55:00,
2013-08-18 05:55:00,82.4,74.1,29.99,ESE,113,0.0,10.0,76,0.00,,SCT250,0.00,VWS V14.00,2013-08-18 09:55:00,
2013-08-18 06:55:00,82.7,75.9,30.00,SE,126,5.0,12.0,80,0.00,,SCT250,0.00,VWS V14.00,2013-08-18 10:55:00,
2013-08-18 07:55:00,83.6,75.6,30.02,East,92,5.0,12.0,77,0.00,,BKN250,0.00,VWS V14.00,2013-08-18 11:55:00,
2013-08-18 08:55:00,85.2,76.4,30.03,East,85,3.0,13.0,75,0.00,,BKN250,0.00,VWS V14.00,2013-08-18 12:55:00,
2013-08-18 09:55:00,86.5,77.2,30.05,SE,132,7.0,12.0,74,0.00,,SCT150,0.00,VWS V14.00,2013-08-18 13:55:00,
2013-08-18 10:55:00,87.0,77.7,30.06,South,176,5.0,13.0,74,0.00,,SCT050,0.00,VWS V14.00,2013-08-18 14:55:00,
2013-08-18 11:55:00,88.3,77.3,30.05,SE,128,10.0,14.0,70,0.00,,SCT250,0.00,VWS V14.00,2013-08-18 15:55:00,
2013-08-18 12:55:00,87.5,78.6,30.05,SE,144,5.0,14.0,75,0.00,,BKN045,0.00,VWS V14.00,2013-08-18 16:55:00,
2013-08-18 13:55:00,86.1,77.2,30.03,SE,130,3.0,14.0,75,0.00,,BKN120,0.00,VWS V14.00,2013-08-18 17:55:00,
2013-08-18 14:55:00,86.0,77.9,30.02,ESE,123,9.0,16.0,77,0.00,,BKN160,0.00,VWS V14.00,2013-08-18 18:55:00,
2013-08-18 15:55:00,84.9,77.7,30.00,ENE,74,0.0,19.0,79,0.00,,SCT160,0.01,VWS V14.00,2013-08-18 19:55:00,
2013-08-18 16:55:00,85.6,77.6,29.99,ESE,113,5.0,11.0,77,0.00,,SCT250,0.01,VWS V14.00,2013-08-18 20:55:00,
2013-08-18 17:55:00,86.4,78.3,29.98,East,82,5.0,14.0,77,0.00,,-RA,0.01,VWS V14.00,2013-08-18 21:55:00,
2013-08-18 18:55:00,84.7,77.8,29.98,SE,126,0.0,12.0,80,0.00,,BKN250,0.01,VWS V14.00,2013-08-18 22:55:00,
2013-08-18 19:55:00,83.7,77.2,30.00,East,88,0.0,10.0,81,0.00,,SCT250,0.01,VWS V14.00,2013-08-18 23:55:00,
2013-08-18 20:55:00,83.6,77.2,30.02,East,101,2.0,9.0,81,0.00,,SCT250,0.01,VWS V14.00,2013-08-19 00:55:00,
2013-08-18 21:55:00,83.4,77.3,30.04,East,94,6.0,9.0,82,0.00,,SCT250,0.01,VWS V14.00,2013-08-19 01:55:00,
2013-08-18 22:55:00,83.2,77.1,30.06,SE,128,4.0,9.0,82,0.00,,FEW025,0.01,VWS V14.00,2013-08-19 02:55:00,
2013-08-18 23:56:00,83.2,77.1,30.06,ESE,121,0.0,10.0,82,0.00,,SCT022,0.00,VWS V14.00,2013-08-19 03:56:00,